This is the latest recevied weather packets stored in our database for station/object N4ASP-13. If no packets are shown the sender has not sent any weather packets the latest 10 day(s).
| Time | Temp. | Humidity | Pressure | Rain* | Wind** | Luminosity | Snow |
|---|---|---|---|---|---|---|---|
| 1777384715 | 10.56° C | 95% | 1019.8 hPa | 0.25 mm | - | 214 W/m² | - |
| 1777384655 | 10.56° C | 95% | 1019.9 hPa | 0.25 mm | - | 216 W/m² | - |
| 1777384597 | 10.56° C | 95% | 1020 hPa | 0.25 mm | - | 193 W/m² | - |
| 1777384534 | 10.56° C | 95% | 1020 hPa | 0.25 mm | - | 197 W/m² | - |
| 1777384465 | 10° C | 95% | 1020 hPa | 0.25 mm | - | 169 W/m² | - |
| 1777384404 | 10° C | 95% | 1020 hPa | 0.25 mm | - | 172 W/m² | - |
| 1777384343 | 10° C | 95% | 1019.9 hPa | 0.25 mm | - | 155 W/m² | - |
| 1777384284 | 10° C | 95% | 1020 hPa | 0.25 mm | - | 135 W/m² | - |
| 1777384224 | 10° C | 95% | 1019.9 hPa | 0.25 mm | - | 127 W/m² | - |
| 1777384159 | 10° C | 95% | 1019.7 hPa | 0.25 mm | - | 132 W/m² | - |
| 1777384097 | 10° C | 95% | 1019.6 hPa | 0.51 mm | - | 128 W/m² | - |
| 1777384039 | 10° C | 95% | 1019.8 hPa | 0.51 mm | - | 127 W/m² | - |
| 1777383979 | 10° C | 95% | 1019.7 hPa | 0.51 mm | - | 121 W/m² | - |
| 1777383918 | 10° C | 95% | 1019.7 hPa | 0.51 mm | - | 114 W/m² | - |
| 1777383851 | 10° C | 95% | 1019.5 hPa | 0.51 mm | - | 123 W/m² | - |
| 1777383793 | 10° C | 95% | 1019.5 hPa | 0.51 mm | - | 135 W/m² | - |
| 1777383733 | 10° C | 95% | 1019.4 hPa | 0.51 mm | - | 120 W/m² | - |
| 1777383671 | 10° C | 95% | 1019.7 hPa | 0.51 mm | - | 116 W/m² | - |
| 1777383610 | 10° C | 95% | 1019.7 hPa | 0.51 mm | - | 100 W/m² | - |
| 1777383541 | 10.56° C | 95% | 1019.7 hPa | 0.51 mm | - | 113 W/m² | - |
| 1777383480 | 10° C | 95% | 1019.6 hPa | 0.51 mm | - | 100 W/m² | - |
| 1777383421 | 10.56° C | 95% | 1019.6 hPa | 0.51 mm | - | 104 W/m² | - |
| 1777383359 | 10.56° C | 95% | 1019.7 hPa | 0.76 mm | - | 100 W/m² | - |
| 1777383299 | 10.56° C | 95% | 1019.6 hPa | 0.76 mm | - | 105 W/m² | - |
| 1777383235 | 10.56° C | 95% | 1019.7 hPa | 0.76 mm | - | 100 W/m² | - |
* Rain latest hour (hover to see other rain measurements)
** Current wind speed in m/s (hover to see current wind gust speed)